Weather History for KMIB - December, 2012

Change the Weather History Date:

Saturday, December 29, 2012

  Actual Average Record
Temperature  
Mean Temperature 2 °F -  
Max Temperature 23 °F 17 °F 51 °F (1999)
Min Temperature -15 °F 1 °F -25 °F (1996)
Degree Days  
Heating Degree Days 62    
Moisture  
Dew Point -5 °F    
Average Humidity 81    
Maximum Humidity 87    
Minimum Humidity 75    
Precipitation  
Precipitation 0.00 in - - ()
Sea Level Pressure  
Sea Level Pressure 30.11 in    
Wind  
Wind Speed 6 mph (SW)    
Max Wind Speed 12 mph    
Max Gust Speed -    
Visibility 10 miles    
Events      
Averages and records for this station are not official NWS values.
T = Trace of Precipitation, MM = Missing Value Source: NWS Daily Summary

Daily Weather History Graph

Daily Weather History Graph

Search for Another Location

Airport or City:

Trip Planner

Search our weather history database for the weather conditions in past years. The results will help you decide how hot, cold, wet, or windy it might be!

Date:

Astronomy

Dec. 29, 2012 Rise Set
Actual Time 8:36 AM CST 4:58 PM CST
Civil Twilight 8:00 AM CST 5:35 PM CST
Nautical Twilight 7:20 AM CST 6:15 PM CST
Astronomical Twilight 6:42 AM CST 6:53 PM CST
Moon 6:42 PM CST (12/29) 9:03 AM CST (12/29)
Length of Visible Light 9h 35m
Length of Day
8h 21m
Full, 98% of the Moon is Illuminated
Dec 29
Full
Jan 4
Last Quarter
Jan 11
New
Jan 18
First Quarter
Jan 26
Full

Hourly Weather History & Observations

Time (CST) Temp. Windchill Dew Point Humidity Pressure Visibility Wind Dir Wind Speed Gust Speed Precip Events Conditions
12:55 AM -14.1 °F -31.3 °F -18.6 °F 80% 30.12 in 10.0 mi West 8.1 mph - N/A   Clear
1:55 AM -9.8 °F -24.7 °F -14.3 °F 81% 30.10 in 10.0 mi West 6.9 mph - N/A   Partly Cloudy
2:55 AM -14.3 °F -30.1 °F -18.9 °F 79% 30.11 in 10.0 mi West 6.9 mph - N/A   Clear
3:55 AM -15.9 °F -33.5 °F -20.6 °F 79% 30.13 in 10.0 mi West 8.1 mph - N/A   Clear
4:55 AM -13.4 °F -25.5 °F -18.2 °F 79% 30.12 in 10.0 mi West 4.6 mph - N/A   Clear
5:55 AM -15.0 °F -29.3 °F -20.0 °F 78% 30.13 in 10.0 mi WSW 5.8 mph - N/A   Clear
6:55 AM -14.6 °F -30.6 °F -19.7 °F 78% 30.13 in 10.0 mi WSW 6.9 mph - N/A   Clear
7:55 AM -11.2 °F -24.8 °F -15.7 °F 80% 30.14 in 10.0 mi West 5.8 mph - N/A   Clear
7:57 AM -11.2 °F -24.8 °F -16.6 °F 77% 30.14 in 10.0 mi West 5.8 mph - N/A   Partly Cloudy
8:06 AM -11.2 °F -26.4 °F -16.6 °F 77% 30.15 in 10.0 mi West 6.9 mph - N/A   Mostly Cloudy
8:08 AM -11.2 °F -26.4 °F -16.6 °F 77% 30.15 in 10.0 mi West 6.9 mph - N/A   Mostly Cloudy
8:55 AM -3.8 °F -12.2 °F -7.6 °F 84% 30.14 in 10.0 mi West 3.5 mph - N/A   Overcast
9:55 AM -2.9 °F -11.2 °F -6.9 °F 83% 30.15 in 10.0 mi West 3.5 mph - N/A   Overcast
10:38 AM 1.4 °F - -4.0 °F 78% 30.15 in 10.0 mi Calm Calm - N/A   Overcast
10:40 AM 1.4 °F - -2.2 °F 85% 30.15 in 10.0 mi Calm Calm - N/A   Overcast
10:55 AM 1.6 °F - -2.0 °F 85% 30.15 in 10.0 mi Calm Calm - N/A   Overcast
11:09 AM 1.4 °F - -2.2 °F 85% 30.14 in 10.0 mi Calm Calm - N/A   Overcast
11:41 AM 3.2 °F -7.8 °F -0.4 °F 85% 30.14 in 6.0 mi SE 5.8 mph - N/A   Mostly Cloudy
11:55 AM 3.6 °F -3.8 °F 0.1 °F 86% 30.14 in 10.0 mi SE 3.5 mph - N/A   Partly Cloudy
12:55 PM 4.3 °F -2.9 °F 0.5 °F 84% 30.11 in 10.0 mi SSE 3.5 mph - N/A   Clear
1:55 PM 8.6 °F 2.0 °F 2.7 °F 77% 30.08 in 10.0 mi South 3.5 mph - N/A   Scattered Clouds
2:55 PM 9.3 °F 1.0 °F 2.8 °F 75% 30.08 in 10.0 mi SSE 4.6 mph - N/A   Clear
3:55 PM 7.7 °F -0.9 °F 1.9 °F 77% 30.08 in 10.0 mi SE 4.6 mph - N/A   Clear
4:55 PM 5.5 °F -1.5 °F 0.7 °F 80% 30.08 in 10.0 mi South 3.5 mph - N/A   Clear
5:55 PM 6.8 °F -5.9 °F 3.6 °F 87% 30.08 in 10.0 mi WSW 8.1 mph - N/A   Clear
6:55 PM 9.1 °F -4.0 °F 5.5 °F 85% 30.07 in 10.0 mi SW 9.2 mph - N/A   Clear
7:55 PM 9.3 °F -2.8 °F 5.7 °F 85% 30.06 in 10.0 mi SW 8.1 mph - N/A   Clear
8:55 PM 7.0 °F -4.5 °F 3.6 °F 86% 30.04 in 10.0 mi SW 6.9 mph - N/A   Partly Cloudy
9:55 PM 18.9 °F - 12.9 °F 78% 30.01 in 10.0 mi Calm Calm - N/A   Clear
10:55 PM 20.3 °F 15.4 °F 14.2 °F 77% 30.01 in 10.0 mi Variable 3.5 mph - N/A   Clear
11:55 PM 23.7 °F 12.6 °F 17.1 °F 76% 29.99 in 10.0 mi West 11.5 mph - N/A   Mostly Cloudy